Location: Seattle
(47.6064°N, 122.3308°W)
Time: 00:17:26
(UTC-08:00)

Envisat - Pass Details

Date: 28 October 2020
Orbit: 764 x 766 km, 98.1° (Epoch: 03 December)

Event Time Altitude Azimuth Distance (km) Brightness Sun altitude
Rises 06:02:45 0° 26° (NNE) 3,244 6.6 -18.3°
Reaches altitude 10° 06:05:40 10° 43° (NE) 2,311 6.1 -17.8°
Maximum altitude 06:09:24 20° 91° (E) 1,703 5.8 -17.2°
Drops below altitude 10° 06:13:07 10° 138° (SE) 2,298 6.1 -16.5°
Sets 06:15:59 0° 155° (SSE) 3,218 6.6 -16.1°
